Starlink 2251

operational
NORAD ID: 48594 Int'l Des: 2021-041 Owner: SPXS Country: US Constellation: starlink
LEOCIRCULARSTARLINK_TYPE

Starlink 2251について

説明を読み込み中...

リアルタイム位置

3D地球を読み込み中...

次回通過

高度履歴

Altitude vs Time

uPlot chart will show altitude changes over time

軌道要素

1 48594U 21041AT 25306.36082664 .00000320 00000-0 40394-4 0 9998
2 48594 53.0555 323.3077 0001387 104.2303 255.8840 15.06400153246292
Epoch: Nov 2, 2025 • Age: 36 hours

現在のステータス

高度 548.4 km
速度 7.59 km/s
衛星直下点 32.05°N, 120.83°E
打ち上げ日 May 15, 2021
運用期間 4.4 years
タイプ internet

技術仕様

分類 Payload
質量 260.00 kg
乾燥質量 248.00 kg
総質量 260.00 kg
長さ 0.20 m
直径 2.80 m
スパン 9.00 m
形状 Box + pan
製造者 SPXS
バスタイプ Starlink
フェーズステータス In Orbit
所有者/国 SPXS/US

大規模コンステレーション

Loading constellations...